Regional Weather Roundup
Issued by NWS

Home | Current Version | Previous Version | Text Only | Print | Product List | Glossary On
Versions: 1 2 3 4 5 6 7 8 9 10 11 12 13 14 15 16 17 18 19 20 21 22 23 24 25 26 27 28 29 30 31 32 33 34 35 36 37 38 39 40 41 42 43 44 45 46 47 48 49 50
000
ASUS44 KOUN 240210
RWROK

WEATHER ROUNDUP FOR OKLAHOMA
NATIONAL WEATHER SERVICE NORMAN OK
800 PM CST FRI FEB 23 2018

NOTE: "FAIR" INDICATES FEW OR NO CLOUDS BELOW 12,000 FEET WITH NO
      SIGNIFICANT WEATHER AND/OR OBSTRUCTIONS TO VISIBILITY.

OKZ001>007-009>012-014-015-017-240300-
NORTHWEST OKLAHOMA AND THE PANHANDLE

CITY           SKY/WX    TMP DP  RH WIND       PRES   REMARKS
GAGE           CLOUDY    32  31  96 E8        30.05F FOG     WCI  25
GUYMON         FOG       31  31 100 E13       29.99S VSB 1/2 WCI  21
ENID/WOODRING  CLOUDY    37  37 100 NE12      30.08F FOG     WCI  30
$$

OKZ016-021>023-033>039-044-045-240300-
SOUTHWEST OKLAHOMA

CITY           SKY/WX    TMP DP  RH WIND       PRES   REMARKS
LAWTON/REGL    CLOUDY    39  39 100 N7        30.06S FOG     WCI  34
LAWTON/FT SILL CLOUDY    37  37 100 N7        30.05S FOG     WCI  32
FREDERICK      CLOUDY    39  38  96 E7        30.04S FOG     WCI  34
CLINTON        CLOUDY    34  33  96 NE13      30.06F FOG     WCI  25
HOBART         CLOUDY    37  35  92 NE12      30.07R FOG     WCI  29
ALTUS AFB      CLOUDY    38  38 100 E7        30.07R WCI  33
$$

OKZ018>020-024>031-240300-
CENTRAL OKLAHOMA

CITY           SKY/WX    TMP DP  RH WIND       PRES   REMARKS
OKLAHOMA CITY  DRIZZLE   38  37  97 NE8       30.05F FOG     WCI  32
OKC/WILEY POST CLOUDY    39  39 100 NE10      30.06F FOG     WCI  32
OKC/TINKER AFB DRIZZLE   38  38 100 NE9       30.05F WCI  31
STILLWATER     CLOUDY    39  37  92 NE8       30.09F WCI  33
GUTHRIE        CLOUDY    39  38  96 NE8       30.07F FOG     WCI  33
$$

OKZ008-013-054>072-240300-
NORTHEAST OKLAHOMA

CITY           SKY/WX    TMP DP  RH WIND       PRES   REMARKS
TULSA          RAIN      42  41  96 N8        30.09F FOG
TULSA/JONES    RAIN      42  40  92 N5        30.08F FOG
PONCA CITY     CLOUDY    37  35  92 NE9       30.10F FOG     WCI  30
BARTLESVILLE   RAIN      39  37  92 N10       30.14R WCI  32
MUSKOGEE       RAIN      50  50 100 NE3       30.07F FOG
$$

OKZ032-040>043-046>053-073>077-240300-
SOUTH CENTRAL/SOUTHEAST OKLAHOMA

CITY           SKY/WX    TMP DP  RH WIND       PRES   REMARKS
ARDMORE/DWNTWN RAIN      41  41 100 CALM      30.05S
MCALESTER      TSTM      46  46 100 NW6       30.05S FOG
$$





USA.gov is the U.S. government's official web portal to all federal, state and local government web resources and services.